This is the latest recevied weather packets stored in our database for station/object VE3DVC. If no packets are shown the sender has not sent any weather packets the latest 10 day(s).
| Time | Temp. | Humidity | Pressure | Rain* | Wind** | Luminosity | Snow |
|---|---|---|---|---|---|---|---|
| 1778084901 | 12.22° C | 82% | 1009.4 hPa | 0 mm | - | - | - |
| 1778084180 | 12.22° C | 76% | 1009.3 hPa | 0 mm | - | - | - |
| 1778083460 | 12.22° C | 80% | 1009.1 hPa | 0 mm | - | - | - |
| 1778082740 | 11.67° C | 87% | 1009.1 hPa | 0 mm | - | - | - |
| 1778082021 | 11.11° C | 90% | 1009.2 hPa | 0 mm | - | - | - |
| 1778081301 | 10.56° C | 91% | 1009 hPa | 0 mm | - | - | - |
| 1778080581 | 10.56° C | 92% | 1009.3 hPa | 0 mm | - | - | - |
| 1778079860 | 10° C | 91% | 1009.2 hPa | 0 mm | - | - | - |
| 1778079141 | 9.44° C | 91% | 1009 hPa | 0 mm | - | - | - |
| 1778078421 | 9.44° C | 91% | 1008.9 hPa | 0 mm | - | - | - |
| 1778077701 | 9.44° C | 91% | 1009 hPa | 0 mm | - | - | - |
| 1778076981 | 8.89° C | 91% | 1008.6 hPa | 0 mm | - | - | - |
| 1778076148 | 8.89° C | 91% | 1008.6 hPa | 0 mm | - | - | - |
| 1778075428 | 8.89° C | 91% | 1008.7 hPa | 0 mm | - | - | - |
| 1778074708 | 8.33° C | 91% | 1008.8 hPa | 0 mm | - | - | - |
| 1778073336 | 8.33° C | 91% | 1008.7 hPa | 0 mm | - | - | - |
| 1778072616 | 8.33° C | 91% | 1008.7 hPa | 0 mm | - | - | - |
| 1778071176 | 8.33° C | 91% | 1008.4 hPa | 0 mm | - | - | - |
| 1778070457 | 8.33° C | 91% | 1008 hPa | 0 mm | - | - | - |
| 1778069737 | 8.33° C | 91% | 1008.1 hPa | 0 mm | - | - | - |
| 1778069017 | 8.33° C | 91% | 1007.9 hPa | 0 mm | - | - | - |
| 1778068296 | 8.33° C | 91% | 1008 hPa | 0 mm | - | - | - |
| 1778066980 | 8.33° C | 91% | 1008 hPa | 0 mm | - | - | - |
| 1778066260 | 8.33° C | 91% | 1007.9 hPa | 0 mm | - | - | - |
| 1778065539 | 8.33° C | 91% | 1007.7 hPa | 0 mm | - | - | - |
* Rain latest hour (hover to see other rain measurements)
** Current wind speed in m/s (hover to see current wind gust speed)